[[{"header":{"parameterUnit":"m.s-1","parameterCategory":1,"la1":30.2991,"la2":30.254,"lo1":-89.0895,"lo2":-89.0444,"dy":0.0017,"dx":0.0017,"nx":28,"ny":28,"refTime":"2025-03-31T03:00:00:Z","depth":0,"parameterNumber":2,"parameterNumberName":"U-component_of_WINDS"},"data":[0,0,0,0,0,0,0,0,0,0,0,0,0,0,0,0,0,0,0,0,0,0,0,0,0,0,0,0,0,0,0,0,0,0,0,0,0,0,0,0,0,0,0,0,0,0,0,0,0,0,0,0,0,0,0,0,0,0,-4.3655,-4.3655,0,-4.3703,-4.3703,-4.3704,-4.3639,-4.3637,-4.3635,-4.3632,-4.368,-4.3684,-4.3687,0,0,0,0,0,0,0,0,0,0,0,0,0,-4.3508,-4.3511,-4.3655,-4.3655,-4.3656,-4.3703,-4.3703,-4.3704,-4.364,-4.3637,-4.3634,-4.3631,-4.3679,-4.3683,-4.3687,0,0,0,0,0,0,0,0,0,0,0,0,0,-4.3566,-4.3512,-4.3655,-4.3629,-4.3628,-4.3703,-4.3704,-4.3704,-4.364,-4.3637,-4.3633,-4.363,-4.3678,-4.3683,-4.3688,-4.3789,0,0,-4.3704,-4.3706,0,0,0,0,0,0,0,0,-4.3562,-4.3571,-4.3633,-4.3631,-4.363,-4.3662,-4.3669,-4.3733,-4.3641,-4.3635,-4.3632,-4.3628,-4.3677,-4.3682,-4.3698,-4.3792,-4.3794,-4.3704,-4.3707,-4.3709,-4.3711,0,0,0,0,0,0,0,-4.3559,-4.3569,-4.3674,-4.3634,-4.3632,-4.3616,-4.3621,-4.3681,-4.3675,-4.3636,-4.3631,-4.3638,-4.3675,-4.3694,-4.3699,-4.3794,-4.3704,-4.3708,-4.3712,-4.3714,-4.3976,-4.3979,0,0,0,0,0,0,-4.3558,-4.3566,-4.3672,-4.3675,-4.3587,-4.3622,-4.3626,-4.3655,-4.3674,-4.3674,-4.3641,-4.3635,-4.3686,-4.3693,-4.37,-4.3821,-4.3709,-4.3714,-4.3717,-4.3972,-4.3977,-4.3981,0,0,0,0,0,0,-4.3555,-4.3568,-4.367,-4.3619,-4.3631,-4.3628,-4.366,-4.3658,-4.3676,-4.3678,-4.3677,-4.366,-4.3684,-4.3693,-4.3768,-4.3822,-4.3717,-4.3721,-4.3967,-4.3973,-4.3979,-4.4062,0,0,0,0,0,0,-4.3551,-4.3567,-4.3605,-4.3621,-4.3634,-4.3737,-4.3663,-4.3661,-4.3685,-4.3677,-4.3696,-4.3696,-4.3682,-4.3761,-4.3773,-4.3827,-4.3725,-4.3962,-4.397,-4.3977,-4.4055,-4.407,-4.4084,0,0,0,0,0,-4.3546,-4.3626,-4.3607,-4.362,-4.3681,-4.374,-4.3748,-4.373,-4.3689,-4.3728,-4.373,-4.3695,-4.3815,-4.3769,-4.3783,-4.3838,-4.3959,-4.3968,-4.3976,-4.4048,-4.4067,-4.4083,0,0,0,0,0,0,-4.3614,-4.3627,-4.3606,-4.3694,-4.3717,-4.3729,-4.3776,-4.3751,-4.3785,-4.3776,-4.3754,-4.3759,-4.3839,-4.3847,-4.3796,-4.3939,-4.388,-4.3892,-4.393,-4.3948,-4.3962,-4.3957,-4.3729,0,0,0,0,0,-4.364,-4.3686,-4.3695,-4.3772,-4.3784,-4.3779,-4.3804,-4.3789,-4.3811,-4.382,-4.3828,-4.3851,-4.3894,-4.3922,-4.3961,-4.4057,-4.4061,-4.4103,-4.4117,-4.4129,-4.4138,-4.4191,-4.421,-4.4009,-4.4009,-4.4009,0,0,-4.3692,-4.3705,-4.3735,-4.3786,-4.3801,-4.3851,-4.3787,-4.3841,-4.3877,-4.3828,-4.3899,-4.3907,-4.3931,-4.4018,-4.4056,-4.4026,-4.4195,-4.414,-4.415,-4.4152,-4.4202,-4.4221,-4.4238,-4.4015,-4.4014,-4.4013,0,0,-4.3812,-4.3827,-4.3893,-4.3911,-4.3937,-4.3934,-4.395,-4.3968,-4.397,-4.4042,-4.4007,-4.4051,-4.4125,-4.4144,-4.4164,-4.4297,-4.4267,-4.4311,-4.4385,-4.4437,-4.4452,-4.4466,-4.4513,-4.453,-4.4321,-4.4322,-4.4322,0,-4.3873,-4.3946,-4.3929,-4.3987,-4.401,-4.3972,-4.4038,-4.4057,-4.4094,-4.4111,-4.4079,-4.4173,-4.4186,-4.4277,-4.431,-4.4328,-4.4346,-4.4307,-4.4452,-4.4465,-4.4478,-4.4522,-4.454,-4.4327,-4.4326,-4.4326,-4.4325,0,-4.402,-4.4071,-4.4122,-4.416,-4.419,-4.4252,-4.4246,-4.4278,-4.4263,-4.4264,-4.4339,-4.4355,-4.4397,-4.4419,-4.4403,-4.4509,-4.4489,-4.4455,-4.4394,-4.4502,-4.4544,-4.4561,-4.4334,-4.4332,-4.4331,-4.4329,0,0,-4.4178,-4.4211,-4.423,-4.4248,-4.4276,-4.4315,-4.4377,-4.442,-4.4449,-4.4478,-4.4528,-4.4595,-4.4564,-4.4586,-4.4574,-4.462,-4.4724,-4.4579,-4.458,-4.4604,-4.4841,-4.4865,-4.4885,-4.4706,-4.471,-4.4712,-4.4839,0,-4.4297,-4.4403,-4.4393,-4.4494,-4.4542,-4.4509,-4.4563,-4.4586,-4.459,-4.4632,-4.4636,-4.4683,-4.4639,-4.4653,-4.4697,-4.4702,-4.4771,-4.4694,-4.4752,-4.4755,-4.4744,-4.4907,-4.4931,-4.505,-4.4855,-4.4858,-4.486,0,-4.4449,-4.4485,-4.4591,-4.4615,-4.4635,-4.4683,-4.4723,-4.4764,-4.4791,-4.4791,-4.4819,-4.48,-4.4863,-4.4805,-4.4892,-4.4839,-4.4864,-4.4871,-4.4875,-4.4877,-4.4811,-4.4911,-4.5087,-4.5104,-4.4885,-4.4883,-4.4881,0,-4.4552,-4.4628,-4.4701,-4.4718,-4.4748,-4.4783,-4.4797,-4.4822,-4.4849,-4.4886,-4.4903,-4.4947,-4.4969,-4.5004,-4.4997,-4.4956,-4.5086,-4.5027,-4.5087,-4.5087,-4.5112,-4.511,-4.5292,-4.5133,-4.5133,-4.5133,-4.5132,0,-4.4684,-4.475,-4.4748,-4.4793,-4.4867,-4.4857,-4.493,-4.494,-4.4963,-4.501,-4.4985,-4.5029,-4.502,-4.5065,-4.5061,-4.5133,-4.5144,-4.5146,-4.5143,-4.5146,-4.5146,-4.5159,-4.5149,-4.5137,-4.5136,-4.5135,-4.5135,0,-4.4809,-4.4811,-4.4889,-4.4913,-4.4921,-4.4974,-4.4995,-4.5038,-4.5042,-4.5102,-4.5116,-4.5122,-4.5174,-4.5172,-4.5231,-4.5228,-4.5317,-4.5307,-4.5308,-4.5304,-4.5364,-4.5357,-4.5558,-4.5583,-4.5411,-4.5412,-4.5414,0,-4.4892,-4.4942,-4.4973,-4.5003,-4.502,-4.5069,-4.5098,-4.5091,-4.5123,-4.5161,-4.5199,-4.525,-4.5288,-4.5374,-4.5383,-4.5429,-4.5418,-4.5485,-4.5424,-4.5426,-4.5416,-4.5412,-4.5417,-4.5496,-4.5498,-4.5499,-4.55,0,-4.5037,-4.5037,-4.508,-4.5125,-4.5161,-4.5196,-4.5228,-4.5254,-4.5251,-4.5288,-4.5342,-4.5373,-4.5435,-4.5485,-4.553,-4.5544,-4.5522,-4.5521,-4.5537,-4.5538,-4.5536,-4.5536,-4.5337,-4.5515,-4.5513,-4.5512,-4.5512,-4.5511,-4.5142,-4.5186,-4.5215,-4.5265,-4.5289,-4.5321,-4.5363,-4.5374,-4.5419,-4.5469,-4.5463,-4.5523,-4.5553,-4.5611,-4.5631,-4.5678,-4.5654,-4.5677,-4.5683,-4.5688,-4.5694,-4.5532,-4.5687,-4.5686,-4.5686,-4.5685,-4.5685,0,-4.5284,-4.5303,-4.535,-4.5396,-4.5436,-4.5415,-4.5451,-4.5485,-4.5539,-4.5569,-4.5609,-4.5672,-4.5722,-4.5738,-4.5787,-4.5822,-4.5813,-4.5834,-4.583,-4.5834,-4.5713,-4.5693,-4.5841,-4.5841,-4.5841,-4.5841,-4.5841,-4.5841,-4.5363,-4.5436,-4.544,-4.5527,-4.5545,-4.5604,-4.5626,-4.5656,-4.568,-4.5752,-4.5794,-4.5805,-4.583,-4.5881,-4.5926,-4.593,-4.5947,-4.5973,-4.5972,-4.5858,-4.5842,-4.5827,-4.5808,-4.5978,-4.5978,-4.6089,-4.609,-4.609]},{"header":{"parameterUnit":"m.s-1","parameterCategory":1,"la1":30.2991,"la2":30.254,"lo1":-89.0895,"lo2":-89.0444,"dy":0.0017,"dx":0.0017,"nx":28,"ny":28,"refTime":"2025-03-31T03:00:00:Z","depth":0,"parameterNumber":3,"parameterNumberName":"V-component_of_WINDS"},"data":[0,0,0,0,0,0,0,0,0,0,0,0,0,0,0,0,0,0,0,0,0,0,0,0,0,0,0,0,0,0,0,0,0,0,0,0,0,0,0,0,0,0,0,0,0,0,0,0,0,0,0,0,0,0,0,0,0,0,1.8876,1.8876,0,1.8901,1.8902,1.8902,1.8946,1.8947,1.8948,1.8948,1.8969,1.8969,1.8969,0,0,0,0,0,0,0,0,0,0,0,0,0,1.8861,1.8861,1.8876,1.8876,1.8876,1.8901,1.8902,1.8902,1.8946,1.8947,1.8948,1.8949,1.8969,1.8969,1.8969,0,0,0,0,0,0,0,0,0,0,0,0,0,1.8875,1.8861,1.8875,1.8901,1.8904,1.8901,1.8902,1.8902,1.8946,1.8947,1.8948,1.8949,1.897,1.8969,1.8969,1.8941,0,0,1.8968,1.8968,0,0,0,0,0,0,0,0,1.8874,1.8875,1.8897,1.89,1.8902,1.8922,1.8904,1.8915,1.8945,1.893,1.8949,1.895,1.8952,1.8953,1.8955,1.8942,1.8943,1.8968,1.8968,1.8967,1.8967,0,0,0,0,0,0,0,1.8873,1.8875,1.8886,1.8897,1.8901,1.8911,1.8914,1.8907,1.8933,1.8931,1.8934,1.8937,1.8954,1.8955,1.8956,1.8944,1.8968,1.8967,1.8967,1.8967,1.8912,1.891,0,0,0,0,0,0,1.8869,1.8874,1.8885,1.8886,1.8891,1.891,1.8914,1.8914,1.8934,1.8938,1.8936,1.8939,1.8955,1.8956,1.8957,1.8927,1.8967,1.8967,1.8967,1.8913,1.8911,1.891,0,0,0,0,0,0,1.8869,1.887,1.8884,1.8881,1.8884,1.8909,1.8909,1.8914,1.8916,1.8937,1.8942,1.8933,1.8956,1.8957,1.8946,1.8928,1.8967,1.8967,1.8914,1.8912,1.8911,1.8867,0,0,0,0,0,0,1.8868,1.8869,1.886,1.888,1.8884,1.8873,1.8908,1.8914,1.8916,1.892,1.8936,1.8939,1.8958,1.8946,1.8945,1.8929,1.8966,1.8916,1.8914,1.8911,1.887,1.8864,1.8858,0,0,0,0,0,1.8867,1.8844,1.8859,1.886,1.8872,1.8872,1.8873,1.8896,1.8914,1.8904,1.8919,1.8939,1.8931,1.8945,1.8944,1.8927,1.8917,1.8914,1.8912,1.8872,1.8865,1.8858,0,0,0,0,0,0,1.8818,1.8848,1.8864,1.8847,1.8857,1.8879,1.8867,1.8887,1.889,1.8894,1.8921,1.8924,1.8909,1.8917,1.8932,1.8903,1.8927,1.8924,1.8898,1.8891,1.8885,1.8883,1.8966,0,0,0,0,0,1.8806,1.8805,1.883,1.8813,1.8817,1.8842,1.8842,1.8859,1.887,1.8873,1.8887,1.8895,1.8894,1.8893,1.8894,1.8872,1.8876,1.886,1.8854,1.8849,1.8846,1.8836,1.883,1.8901,1.8901,1.8901,0,0,1.8779,1.8795,1.8792,1.8803,1.8813,1.881,1.8844,1.8839,1.8837,1.8872,1.8863,1.8873,1.8884,1.8867,1.8861,1.8873,1.8828,1.8846,1.8842,1.8841,1.8833,1.8826,1.882,1.8899,1.8899,1.8899,0,0,1.873,1.8742,1.873,1.874,1.8755,1.8772,1.8769,1.8789,1.8798,1.879,1.8816,1.8814,1.8812,1.8819,1.8822,1.8779,1.8798,1.8779,1.8748,1.8738,1.8732,1.8728,1.8712,1.8707,1.8776,1.8775,1.8775,0,1.8695,1.8693,1.8721,1.8715,1.8719,1.8754,1.8742,1.8749,1.8763,1.8764,1.8779,1.878,1.8789,1.8776,1.8766,1.8767,1.8764,1.8776,1.8731,1.8727,1.8723,1.8708,1.8703,1.8773,1.8773,1.8773,1.8774,0,1.8649,1.8648,1.8636,1.8651,1.8654,1.8645,1.8671,1.8671,1.8688,1.8704,1.8695,1.8708,1.8713,1.8711,1.8727,1.87,1.8708,1.8727,1.8752,1.8713,1.87,1.8695,1.8769,1.877,1.8771,1.8772,0,0,1.8567,1.8601,1.8596,1.8604,1.8625,1.8623,1.8616,1.8623,1.8622,1.8631,1.8626,1.8625,1.8644,1.8647,1.8665,1.8656,1.8622,1.8676,1.8677,1.8666,1.8594,1.8579,1.8573,1.8636,1.8635,1.8634,1.8593,0,1.8522,1.8513,1.8539,1.8523,1.8522,1.8556,1.855,1.8562,1.8577,1.8577,1.8593,1.8592,1.8616,1.8619,1.8612,1.8628,1.8608,1.8631,1.863,1.8629,1.8625,1.8566,1.855,1.8511,1.8588,1.8587,1.8587,0,1.8467,1.8476,1.8461,1.8485,1.8485,1.8479,1.8489,1.8489,1.8504,1.8515,1.8521,1.8542,1.8537,1.8562,1.8554,1.8569,1.8571,1.8578,1.8577,1.8577,1.8605,1.8564,1.8499,1.8493,1.8579,1.858,1.858,0,1.8409,1.8417,1.841,1.8415,1.8443,1.8438,1.8449,1.8465,1.8468,1.8476,1.8478,1.8485,1.8488,1.8492,1.8515,1.8531,1.8504,1.8531,1.8513,1.8512,1.8505,1.8505,1.8438,1.8506,1.8506,1.8506,1.8507,0,1.8355,1.8344,1.8384,1.8379,1.8369,1.8399,1.8387,1.8401,1.8416,1.8414,1.8443,1.844,1.8471,1.8471,1.8489,1.848,1.8481,1.849,1.8494,1.8487,1.8486,1.8487,1.849,1.8505,1.8505,1.8506,1.8506,0,1.8287,1.8314,1.8308,1.8336,1.8343,1.8334,1.8357,1.8353,1.8371,1.8368,1.8369,1.8396,1.8399,1.8423,1.8429,1.8441,1.8425,1.8435,1.8421,1.8424,1.8405,1.8406,1.8336,1.8329,1.8402,1.8401,1.84,0,1.8251,1.8244,1.8272,1.8274,1.8285,1.8287,1.8292,1.8322,1.8325,1.8342,1.8336,1.8342,1.8347,1.835,1.8369,1.8375,1.8385,1.836,1.8386,1.8379,1.8385,1.8385,1.8384,1.8354,1.8353,1.8353,1.8352,0,1.8184,1.8198,1.8204,1.8216,1.8221,1.823,1.8242,1.8241,1.8275,1.8277,1.8281,1.8286,1.8295,1.8299,1.8309,1.8319,1.8341,1.8344,1.834,1.8332,1.8324,1.8329,1.8406,1.8345,1.8346,1.8346,1.8347,1.8347,1.8131,1.8127,1.8147,1.8153,1.8166,1.8177,1.8175,1.8194,1.8199,1.821,1.8227,1.8229,1.8245,1.8261,1.8269,1.8271,1.8283,1.8277,1.8276,1.8274,1.827,1.8325,1.8272,1.8273,1.8273,1.8273,1.8273,0,1.8066,1.8081,1.8087,1.8103,1.8108,1.8131,1.8146,1.8148,1.815,1.8164,1.817,1.8176,1.8181,1.8202,1.821,1.8207,1.8217,1.8208,1.8208,1.821,1.8258,1.8261,1.82,1.82,1.82,1.82,1.82,1.82,1.8032,1.8027,1.8044,1.8046,1.8061,1.8065,1.8071,1.8081,1.8093,1.8098,1.8104,1.8119,1.8136,1.8146,1.8152,1.8158,1.8159,1.8146,1.8155,1.82,1.8207,1.8213,1.8216,1.8146,1.8146,1.8108,1.8107,1.8107]}]]